contact:dominique.lefevre@mio.osupytheas.fr, maurice.libes@osupytheas.fr, didier.mallarino@osupytheas.fr
Project:EMSO http://www.emso-fr.org/EMSO-France
Depth: 2436.0 m
Title:EMSO Ligure Ouest : Data MII capteur CSTAR
DateTime,Latitude,Longitude,Instrument_Serial,Reference_Counts,Signal_Counts,Corrected_Signal_raw_counts,Calculated_Beam_c_inverse_meters,Internal_thermistor_counts
DateTime,Latitude,Longitude,Instrument_Serial,Reference_Counts,Signal_Counts,Corrected_Signal_raw_counts,Calculated_Beam_c_inverse_meters,Internal_thermistor_counts
2021-10-24T00:02:09,42.805,6.029,CST-1368DR,5129,6825,14239,0.369,551
2021-10-24T00:05:11,42.805,6.029,CST-1368DR,5129,6824,14238,0.370,551
2021-10-24T00:08:12,42.805,6.029,CST-1368DR,5129,6825,14239,0.369,551
2021-10-24T00:11:14,42.805,6.029,CST-1368DR,5129,6825,14239,0.369,551
2021-10-24T00:14:15,42.805,6.029,CST-1368DR,5129,6825,14240,0.369,551
2021-10-24T00:17:17,42.805,6.029,CST-1368DR,5129,6824,14238,0.370,551
2021-10-24T00:20:19,42.805,6.029,CST-1368DR,5129,6824,14238,0.370,551
2021-10-24T00:23:20,42.805,6.029,CST-1368DR,5129,6825,14240,0.369,551
2021-10-24T00:26:22,42.805,6.029,CST-1368DR,5129,6825,14238,0.370,551
2021-10-24T00:29:23,42.805,6.029,CST-1368DR,5129,6825,14239,0.369,551
2021-10-24T00:32:25,42.805,6.029,CST-1368DR,5129,6825,14238,0.370,551
2021-10-24T00:35:26,42.805,6.029,CST-1368DR,5129,6825,14239,0.369,551
2021-10-24T00:38:28,42.805,6.029,CST-1368DR,5129,6824,14238,0.370,551
2021-10-24T00:41:30,42.805,6.029,CST-1368DR,5129,6825,14240,0.369,551
2021-10-24T00:44:31,42.805,6.029,CST-1368DR,5129,6824,14238,0.370,551
2021-10-24T00:47:33,42.805,6.029,CST-1368DR,5129,6824,14238,0.370,551
2021-10-24T00:50:34,42.805,6.029,CST-1368DR,5129,6824,14238,0.370,551
2021-10-24T00:53:36,42.805,6.029,CST-1368DR,5129,6824,14237,0.370,551
2021-10-24T00:56:38,42.805,6.029,CST-1368DR,5129,6824,14237,0.370,551
2021-10-24T00:59:39,42.805,6.029,CST-1368DR,5129,6824,14237,0.370,551
2021-10-24T01:02:41,42.805,6.029,CST-1368DR,5129,6824,14238,0.370,551
2021-10-24T01:05:42,42.805,6.029,CST-1368DR,5129,6824,14238,0.370,551
2021-10-24T01:08:44,42.805,6.029,CST-1368DR,5129,6824,14237,0.370,551
2021-10-24T01:11:45,42.805,6.029,CST-1368DR,5129,6820,14229,0.372,551
2021-10-24T01:14:47,42.805,6.029,CST-1368DR,5129,6825,14239,0.369,551
2021-10-24T01:17:49,42.805,6.029,CST-1368DR,5129,6824,14238,0.370,551
2021-10-24T01:20:50,42.805,6.029,CST-1368DR,5129,6822,14233,0.371,551
2021-10-24T01:23:52,42.805,6.029,CST-1368DR,5129,6825,14239,0.369,551
2021-10-24T01:26:53,42.805,6.029,CST-1368DR,5129,6825,14239,0.369,551
2021-10-24T01:29:55,42.805,6.029,CST-1368DR,5129,6825,14238,0.370,551
2021-10-24T01:32:56,42.805,6.029,CST-1368DR,5129,6824,14237,0.370,551
2021-10-24T01:35:58,42.805,6.029,CST-1368DR,5129,6824,14237,0.370,551
2021-10-24T01:39:00,42.805,6.029,CST-1368DR,5129,6824,14238,0.370,551
2021-10-24T01:42:01,42.805,6.029,CST-1368DR,5129,6823,14235,0.370,551
2021-10-24T01:45:03,42.805,6.029,CST-1368DR,5129,6824,14237,0.370,551
2021-10-24T01:48:04,42.805,6.029,CST-1368DR,5129,6824,14238,0.370,551
2021-10-24T01:51:06,42.805,6.029,CST-1368DR,5129,6824,14237,0.370,551
2021-10-24T01:54:08,42.805,6.029,CST-1368DR,5129,6824,14237,0.370,551
2021-10-24T01:57:09,42.805,6.029,CST-1368DR,5129,6824,14237,0.370,551
2021-10-24T02:00:11,42.805,6.029,CST-1368DR,5129,6824,14237,0.370,551
2021-10-24T02:03:12,42.805,6.029,CST-1368DR,5129,6824,14237,0.370,551
2021-10-24T02:06:14,42.805,6.029,CST-1368DR,5129,6824,14238,0.370,551
2021-10-24T02:09:15,42.805,6.029,CST-1368DR,5129,6824,14237,0.370,551
2021-10-24T02:12:17,42.805,6.029,CST-1368DR,5129,6824,14237,0.370,551
2021-10-24T02:15:19,42.805,6.029,CST-1368DR,5129,6824,14238,0.370,551
2021-10-24T02:18:20,42.805,6.029,CST-1368DR,5129,6824,14237,0.370,551
2021-10-24T02:21:22,42.805,6.029,CST-1368DR,5129,6824,14237,0.370,551
2021-10-24T02:24:23,42.805,6.029,CST-1368DR,5129,6823,14235,0.370,551
2021-10-24T02:27:25,42.805,6.029,CST-1368DR,5129,6824,14237,0.370,551
2021-10-24T02:30:27,42.805,6.029,CST-1368DR,5129,6821,14230,0.372,551
2021-10-24T02:33:28,42.805,6.029,CST-1368DR,5129,6823,14236,0.370,551
2021-10-24T02:36:30,42.805,6.029,CST-1368DR,5129,6824,14237,0.370,551
2021-10-24T02:39:31,42.805,6.029,CST-1368DR,5129,6826,14242,0.368,551
2021-10-24T02:42:33,42.805,6.029,CST-1368DR,5129,6826,14242,0.368,551
2021-10-24T02:45:34,42.805,6.029,CST-1368DR,5129,6827,14242,0.368,551
2021-10-24T02:48:36,42.805,6.029,CST-1368DR,5129,6825,14239,0.369,551
2021-10-24T02:51:38,42.805,6.029,CST-1368DR,5129,6826,14242,0.368,551
2021-10-24T02:54:39,42.805,6.029,CST-1368DR,5129,6826,14242,0.368,551
2021-10-24T02:57:41,42.805,6.029,CST-1368DR,5129,6826,14241,0.369,551
2021-10-24T03:00:42,42.805,6.029,CST-1368DR,5129,6826,14241,0.369,551
2021-10-24T03:03:44,42.805,6.029,CST-1368DR,5129,6826,14241,0.369,551
2021-10-24T03:06:46,42.805,6.029,CST-1368DR,5129,6826,14241,0.369,551
2021-10-24T03:09:47,42.805,6.029,CST-1368DR,5129,6826,14240,0.369,551
2021-10-24T03:12:49,42.805,6.029,CST-1368DR,5129,6826,14241,0.369,551
2021-10-24T03:15:50,42.805,6.029,CST-1368DR,5129,6826,14242,0.368,551
2021-10-24T03:18:52,42.805,6.029,CST-1368DR,5129,6826,14241,0.369,551
2021-10-24T03:21:53,42.805,6.029,CST-1368DR,5129,6826,14241,0.369,551
2021-10-24T03:24:55,42.805,6.029,CST-1368DR,5129,6826,14241,0.369,551
2021-10-24T03:27:57,42.805,6.029,CST-1368DR,5129,6826,14240,0.369,551
2021-10-24T03:30:58,42.805,6.029,CST-1368DR,5129,6825,14240,0.369,551
2021-10-24T03:34:00,42.805,6.029,CST-1368DR,5129,6826,14241,0.369,551
2021-10-24T03:37:01,42.805,6.029,CST-1368DR,5129,6825,14238,0.370,551
2021-10-24T03:40:03,42.805,6.029,CST-1368DR,5129,6826,14240,0.369,551
2021-10-24T03:43:04,42.805,6.029,CST-1368DR,5129,6826,14240,0.369,551
2021-10-24T03:46:06,42.805,6.029,CST-1368DR,5129,6826,14240,0.369,551
2021-10-24T03:49:08,42.805,6.029,CST-1368DR,5129,6826,14240,0.369,551
2021-10-24T03:52:09,42.805,6.029,CST-1368DR,5129,6826,14240,0.369,551
2021-10-24T03:55:11,42.805,6.029,CST-1368DR,5129,6825,14240,0.369,551
2021-10-24T03:58:12,42.805,6.029,CST-1368DR,5129,6825,14239,0.369,551
2021-10-24T04:01:14,42.805,6.029,CST-1368DR,5129,6826,14240,0.369,551
2021-10-24T04:04:16,42.805,6.029,CST-1368DR,5129,6825,14238,0.370,551
2021-10-24T04:07:17,42.805,6.029,CST-1368DR,5129,6825,14240,0.369,551
2021-10-24T04:10:19,42.805,6.029,CST-1368DR,5129,6825,14239,0.369,551
2021-10-24T04:13:20,42.805,6.029,CST-1368DR,5129,6824,14237,0.370,551
2021-10-24T04:16:22,42.805,6.029,CST-1368DR,5129,6825,14239,0.369,551
2021-10-24T04:19:23,42.805,6.029,CST-1368DR,5129,6825,14239,0.369,551
2021-10-24T04:22:25,42.805,6.029,CST-1368DR,5129,6825,14239,0.369,551
2021-10-24T04:25:27,42.805,6.029,CST-1368DR,5129,6825,14239,0.369,551
2021-10-24T04:28:28,42.805,6.029,CST-1368DR,5129,6825,14239,0.369,551
2021-10-24T04:31:30,42.805,6.029,CST-1368DR,5129,6825,14238,0.370,551
2021-10-24T04:34:31,42.805,6.029,CST-1368DR,5129,6825,14239,0.369,551
2021-10-24T04:37:33,42.805,6.029,CST-1368DR,5129,6825,14239,0.369,551
2021-10-24T04:40:35,42.805,6.029,CST-1368DR,5129,6825,14239,0.369,551
2021-10-24T04:43:36,42.805,6.029,CST-1368DR,5129,6825,14238,0.370,550
2021-10-24T04:46:38,42.805,6.029,CST-1368DR,5129,6825,14239,0.369,551
2021-10-24T04:49:39,42.805,6.029,CST-1368DR,5129,6823,14236,0.370,551
2021-10-24T04:52:41,42.805,6.029,CST-1368DR,5129,6824,14238,0.370,551
2021-10-24T04:55:42,42.805,6.029,CST-1368DR,5129,6825,14239,0.369,551
2021-10-24T04:58:44,42.805,6.029,CST-1368DR,5129,6825,14238,0.370,551
2021-10-24T05:01:46,42.805,6.029,CST-1368DR,5129,6824,14238,0.370,551
2021-10-24T05:04:47,42.805,6.029,CST-1368DR,5129,6825,14239,0.369,551
2021-10-24T05:07:49,42.805,6.029,CST-1368DR,5129,6824,14238,0.370,551
2021-10-24T05:10:50,42.805,6.029,CST-1368DR,5129,6825,14238,0.370,551
2021-10-24T05:13:52,42.805,6.029,CST-1368DR,5129,6825,14238,0.370,551
2021-10-24T05:16:53,42.805,6.029,CST-1368DR,5129,6825,14239,0.369,551
2021-10-24T05:19:55,42.805,6.029,CST-1368DR,5129,6824,14238,0.370,551
2021-10-24T05:22:57,42.805,6.029,CST-1368DR,5129,6823,14236,0.370,551
2021-10-24T05:25:58,42.805,6.029,CST-1368DR,5129,6824,14238,0.370,551
2021-10-24T05:29:00,42.805,6.029,CST-1368DR,5129,6822,14233,0.371,551
2021-10-24T05:32:01,42.805,6.029,CST-1368DR,5129,6824,14238,0.370,551
2021-10-24T05:35:03,42.805,6.029,CST-1368DR,5129,6824,14237,0.370,551
2021-10-24T05:38:05,42.805,6.029,CST-1368DR,5129,6824,14237,0.370,551
2021-10-24T05:41:06,42.805,6.029,CST-1368DR,5129,6824,14237,0.370,551
2021-10-24T05:44:08,42.805,6.029,CST-1368DR,5129,6825,14238,0.370,551
2021-10-24T05:47:09,42.805,6.029,CST-1368DR,5129,6824,14237,0.370,551
2021-10-24T05:50:11,42.805,6.029,CST-1368DR,5129,6824,14237,0.370,551
2021-10-24T05:53:12,42.805,6.029,CST-1368DR,5129,6824,14237,0.370,551
2021-10-24T05:56:14,42.805,6.029,CST-1368DR,5129,6824,14237,0.370,551
2021-10-24T05:59:16,42.805,6.029,CST-1368DR,5129,6823,14236,0.370,551
2021-10-24T06:02:17,42.805,6.029,CST-1368DR,5129,6823,14234,0.371,551
2021-10-24T06:05:19,42.805,6.029,CST-1368DR,5129,6824,14237,0.370,551
2021-10-24T06:08:20,42.805,6.029,CST-1368DR,5129,6824,14237,0.370,551
2021-10-24T06:11:22,42.805,6.029,CST-1368DR,5129,6824,14237,0.370,551
2021-10-24T06:14:24,42.805,6.029,CST-1368DR,5129,6823,14236,0.370,551
2021-10-24T06:17:25,42.805,6.029,CST-1368DR,5129,6824,14237,0.370,551
2021-10-24T06:20:27,42.805,6.029,CST-1368DR,5129,6824,14238,0.370,551
2021-10-24T06:23:28,42.805,6.029,CST-1368DR,5129,6823,14236,0.370,551
2021-10-24T06:26:30,42.805,6.029,CST-1368DR,5129,6824,14237,0.370,551
2021-10-24T06:29:31,42.805,6.029,CST-1368DR,5129,6824,14237,0.370,551
2021-10-24T06:32:33,42.805,6.029,CST-1368DR,5129,6824,14237,0.370,551
2021-10-24T06:35:35,42.805,6.029,CST-1368DR,5129,6823,14236,0.370,551
2021-10-24T06:38:36,42.805,6.029,CST-1368DR,5129,6823,14236,0.370,551
2021-10-24T06:41:38,42.805,6.029,CST-1368DR,5129,6823,14236,0.370,551
2021-10-24T06:44:39,42.805,6.029,CST-1368DR,5129,6823,14236,0.370,551
2021-10-24T06:47:41,42.805,6.029,CST-1368DR,5129,6823,14235,0.370,551
2021-10-24T06:50:43,42.805,6.029,CST-1368DR,5129,6823,14235,0.370,551
2021-10-24T06:53:44,42.805,6.029,CST-1368DR,5129,6823,14235,0.370,551
2021-10-24T06:56:46,42.805,6.029,CST-1368DR,5129,6823,14234,0.371,551
2021-10-24T06:59:47,42.805,6.029,CST-1368DR,5129,6822,14233,0.371,551
2021-10-24T07:02:49,42.805,6.029,CST-1368DR,5129,6822,14233,0.371,551
2021-10-24T07:05:50,42.805,6.029,CST-1368DR,5129,6823,14236,0.370,551
2021-10-24T07:08:52,42.805,6.029,CST-1368DR,5129,6822,14233,0.371,551
2021-10-24T07:11:54,42.805,6.029,CST-1368DR,5129,6823,14235,0.370,551
2021-10-24T07:14:55,42.805,6.029,CST-1368DR,5128,6820,14231,0.371,551
2021-10-24T07:17:57,42.805,6.029,CST-1368DR,5128,6823,14238,0.370,551
2021-10-24T07:20:58,42.805,6.029,CST-1368DR,5129,6822,14233,0.371,551
2021-10-24T07:24:00,42.805,6.029,CST-1368DR,5128,6823,14237,0.370,551
2021-10-24T07:27:01,42.805,6.029,CST-1368DR,5128,6823,14237,0.370,551
2021-10-24T07:30:03,42.805,6.029,CST-1368DR,5128,6823,14237,0.370,551
2021-10-24T07:33:05,42.805,6.029,CST-1368DR,5128,6822,14236,0.370,551
2021-10-24T07:36:06,42.805,6.029,CST-1368DR,5128,6823,14237,0.370,551
2021-10-24T07:39:08,42.805,6.029,CST-1368DR,5128,6822,14236,0.370,551
2021-10-24T07:42:09,42.805,6.029,CST-1368DR,5128,6823,14237,0.370,551
2021-10-24T07:45:11,42.805,6.029,CST-1368DR,5129,6822,14233,0.371,551
2021-10-24T07:48:13,42.805,6.029,CST-1368DR,5128,6822,14236,0.370,551
2021-10-24T07:51:14,42.805,6.029,CST-1368DR,5129,6823,14235,0.370,551
2021-10-24T07:54:16,42.805,6.029,CST-1368DR,5128,6822,14235,0.370,551
2021-10-24T07:57:17,42.805,6.029,CST-1368DR,5128,6822,14236,0.370,551
2021-10-24T08:00:19,42.805,6.029,CST-1368DR,5128,6822,14236,0.370,551
2021-10-24T08:03:20,42.805,6.029,CST-1368DR,5128,6821,14233,0.371,551
2021-10-24T08:06:22,42.805,6.029,CST-1368DR,5128,6822,14235,0.370,551
2021-10-24T08:09:24,42.805,6.029,CST-1368DR,5128,6822,14236,0.370,551
2021-10-24T08:12:25,42.805,6.029,CST-1368DR,5128,6823,14237,0.370,551
2021-10-24T08:15:27,42.805,6.029,CST-1368DR,5128,6821,14234,0.371,551
2021-10-24T08:18:28,42.805,6.029,CST-1368DR,5128,6822,14235,0.370,551
2021-10-24T08:21:30,42.805,6.029,CST-1368DR,5128,6822,14236,0.370,551
2021-10-24T08:24:32,42.805,6.029,CST-1368DR,5128,6822,14235,0.370,551
2021-10-24T08:27:33,42.805,6.029,CST-1368DR,5128,6821,14234,0.371,551
2021-10-24T08:30:35,42.805,6.029,CST-1368DR,5128,6821,14233,0.371,551
2021-10-24T08:33:36,42.805,6.029,CST-1368DR,5128,6821,14234,0.371,551
2021-10-24T08:36:38,42.805,6.029,CST-1368DR,5128,6822,14235,0.370,551
2021-10-24T08:39:39,42.805,6.029,CST-1368DR,5128,6822,14236,0.370,551
2021-10-24T08:42:41,42.805,6.029,CST-1368DR,5128,6822,14235,0.370,551
2021-10-24T08:45:43,42.805,6.029,CST-1368DR,5128,6821,14232,0.371,551
2021-10-24T08:48:44,42.805,6.029,CST-1368DR,5128,6822,14235,0.370,551
2021-10-24T08:51:46,42.805,6.029,CST-1368DR,5128,6822,14235,0.370,551
2021-10-24T08:54:47,42.805,6.029,CST-1368DR,5128,6822,14235,0.370,551
2021-10-24T08:57:49,42.805,6.029,CST-1368DR,5128,6821,14233,0.371,551
2021-10-24T09:00:50,42.805,6.029,CST-1368DR,5128,6822,14235,0.370,551
2021-10-24T09:03:52,42.805,6.029,CST-1368DR,5128,6821,14233,0.371,551
2021-10-24T09:06:54,42.805,6.029,CST-1368DR,5128,6821,14234,0.371,551
2021-10-24T09:09:55,42.805,6.029,CST-1368DR,5128,6821,14233,0.371,551
2021-10-24T09:12:57,42.805,6.029,CST-1368DR,5128,6819,14228,0.372,551
2021-10-24T09:15:58,42.805,6.029,CST-1368DR,5128,6821,14233,0.371,551
2021-10-24T09:19:00,42.805,6.029,CST-1368DR,5128,6821,14234,0.371,551
2021-10-24T09:22:02,42.805,6.029,CST-1368DR,5128,6822,14235,0.370,551
2021-10-24T09:25:03,42.805,6.029,CST-1368DR,5128,6821,14234,0.371,551
2021-10-24T09:28:05,42.805,6.029,CST-1368DR,5128,6821,14233,0.371,551
2021-10-24T09:31:06,42.805,6.029,CST-1368DR,5128,6821,14233,0.371,551
2021-10-24T09:34:08,42.805,6.029,CST-1368DR,5128,6821,14234,0.371,551
2021-10-24T09:37:09,42.805,6.029,CST-1368DR,5128,6821,14234,0.371,551
2021-10-24T09:40:11,42.805,6.029,CST-1368DR,5128,6821,14233,0.371,551
2021-10-24T09:43:13,42.805,6.029,CST-1368DR,5128,6821,14234,0.371,551
2021-10-24T09:46:14,42.805,6.029,CST-1368DR,5128,6821,14233,0.371,551
2021-10-24T09:49:16,42.805,6.029,CST-1368DR,5128,6821,14232,0.371,551
2021-10-24T09:52:17,42.805,6.029,CST-1368DR,5128,6821,14232,0.371,550
2021-10-24T09:55:19,42.805,6.029,CST-1368DR,5128,6821,14232,0.371,551
2021-10-24T09:58:21,42.805,6.029,CST-1368DR,5128,6821,14233,0.371,551
2021-10-24T10:01:22,42.805,6.029,CST-1368DR,5128,6821,14234,0.371,551
2021-10-24T10:04:24,42.805,6.029,CST-1368DR,5128,6821,14234,0.371,551
2021-10-24T10:07:25,42.805,6.029,CST-1368DR,5128,6821,14233,0.371,551
2021-10-24T10:10:27,42.805,6.029,CST-1368DR,5128,6821,14234,0.371,551
2021-10-24T10:13:28,42.805,6.029,CST-1368DR,5128,6821,14232,0.371,551
2021-10-24T10:16:30,42.805,6.029,CST-1368DR,5128,6821,14234,0.371,551
2021-10-24T10:19:32,42.805,6.029,CST-1368DR,5128,6820,14230,0.372,551
2021-10-24T10:22:33,42.805,6.029,CST-1368DR,5128,6821,14233,0.371,551
2021-10-24T10:25:35,42.805,6.029,CST-1368DR,5128,6821,14233,0.371,551
2021-10-24T10:28:36,42.805,6.029,CST-1368DR,5128,6819,14230,0.372,551
2021-10-24T10:31:38,42.805,6.029,CST-1368DR,5128,6819,14229,0.372,551
2021-10-24T10:34:40,42.805,6.029,CST-1368DR,5128,6821,14232,0.371,551
2021-10-24T10:37:41,42.805,6.029,CST-1368DR,5128,6820,14231,0.371,551
2021-10-24T10:40:43,42.805,6.029,CST-1368DR,5128,6821,14233,0.371,551
2021-10-24T10:43:44,42.805,6.029,CST-1368DR,5128,6820,14230,0.372,551
2021-10-24T10:46:46,42.805,6.029,CST-1368DR,5128,6821,14234,0.371,551
2021-10-24T10:49:47,42.805,6.029,CST-1368DR,5128,6821,14233,0.371,551
2021-10-24T10:52:49,42.805,6.029,CST-1368DR,5128,6820,14231,0.371,551
2021-10-24T10:55:51,42.805,6.029,CST-1368DR,5128,6821,14232,0.371,551
2021-10-24T10:58:52,42.805,6.029,CST-1368DR,5128,6820,14231,0.371,551
2021-10-24T11:01:54,42.805,6.029,CST-1368DR,5128,6820,14231,0.371,551
2021-10-24T11:04:55,42.805,6.029,CST-1368DR,5128,6821,14232,0.371,551
2021-10-24T11:07:57,42.805,6.029,CST-1368DR,5128,6821,14232,0.371,551
2021-10-24T11:10:58,42.805,6.029,CST-1368DR,5128,6820,14231,0.371,551
2021-10-24T11:14:00,42.805,6.029,CST-1368DR,5128,6820,14231,0.371,551
2021-10-24T11:17:02,42.805,6.029,CST-1368DR,5128,6819,14229,0.372,551
2021-10-24T11:20:03,42.805,6.029,CST-1368DR,5128,6818,14227,0.373,551
2021-10-24T11:23:05,42.805,6.029,CST-1368DR,5128,6821,14233,0.371,551
2021-10-24T11:26:06,42.805,6.029,CST-1368DR,5128,6820,14231,0.371,551
2021-10-24T11:29:08,42.805,6.029,CST-1368DR,5128,6821,14233,0.371,551
2021-10-24T11:32:10,42.805,6.029,CST-1368DR,5128,6819,14229,0.372,551
2021-10-24T11:35:11,42.805,6.029,CST-1368DR,5128,6820,14231,0.371,551
2021-10-24T11:38:13,42.805,6.029,CST-1368DR,5128,6819,14230,0.372,551
2021-10-24T11:41:14,42.805,6.029,CST-1368DR,5128,6819,14230,0.372,551
2021-10-24T11:44:16,42.805,6.029,CST-1368DR,5128,6820,14231,0.371,551
2021-10-24T11:47:17,42.805,6.029,CST-1368DR,5128,6820,14231,0.371,551
2021-10-24T11:50:19,42.805,6.029,CST-1368DR,5128,6819,14230,0.372,551
2021-10-24T11:53:21,42.805,6.029,CST-1368DR,5128,6820,14230,0.372,551
2021-10-24T11:56:22,42.805,6.029,CST-1368DR,5128,6819,14230,0.372,551
2021-10-24T11:59:24,42.805,6.029,CST-1368DR,5128,6820,14231,0.371,551
2021-10-24T12:02:25,42.805,6.029,CST-1368DR,5128,6819,14229,0.372,551
2021-10-24T12:05:27,42.805,6.029,CST-1368DR,5128,6819,14230,0.372,551
2021-10-24T12:08:29,42.805,6.029,CST-1368DR,5128,6819,14229,0.372,550
2021-10-24T12:11:30,42.805,6.029,CST-1368DR,5128,6820,14231,0.371,551
2021-10-24T12:14:32,42.805,6.029,CST-1368DR,5128,6819,14229,0.372,551
2021-10-24T12:17:33,42.805,6.029,CST-1368DR,5128,6820,14231,0.371,551
2021-10-24T12:20:35,42.805,6.029,CST-1368DR,5128,6819,14229,0.372,551
2021-10-24T12:23:36,42.805,6.029,CST-1368DR,5128,6819,14230,0.372,551
2021-10-24T12:26:38,42.805,6.029,CST-1368DR,5128,6819,14229,0.372,551
2021-10-24T12:29:40,42.805,6.029,CST-1368DR,5128,6819,14229,0.372,551
2021-10-24T12:32:41,42.805,6.029,CST-1368DR,5128,6819,14229,0.372,551
2021-10-24T12:35:43,42.805,6.029,CST-1368DR,5128,6819,14229,0.372,551
2021-10-24T12:38:44,42.805,6.029,CST-1368DR,5128,6818,14226,0.373,551
2021-10-24T12:41:46,42.805,6.029,CST-1368DR,5128,6820,14231,0.371,551
2021-10-24T12:44:48,42.805,6.029,CST-1368DR,5128,6820,14230,0.372,551
2021-10-24T12:47:49,42.805,6.029,CST-1368DR,5128,6819,14229,0.372,551
2021-10-24T12:50:51,42.805,6.029,CST-1368DR,5128,6821,14232,0.371,551
2021-10-24T12:53:52,42.805,6.029,CST-1368DR,5128,6820,14231,0.371,551
2021-10-24T12:56:54,42.805,6.029,CST-1368DR,5128,6821,14232,0.371,551
2021-10-24T12:59:55,42.805,6.029,CST-1368DR,5128,6812,14214,0.376,551
2021-10-24T13:02:57,42.805,6.029,CST-1368DR,5128,6821,14234,0.371,551
2021-10-24T13:05:59,42.805,6.029,CST-1368DR,5128,6821,14233,0.371,551
2021-10-24T13:09:00,42.805,6.029,CST-1368DR,5128,6821,14232,0.371,551
2021-10-24T13:12:02,42.805,6.029,CST-1368DR,5128,6821,14234,0.371,551
2021-10-24T13:15:03,42.805,6.029,CST-1368DR,5128,6821,14234,0.371,551
2021-10-24T13:18:05,42.805,6.029,CST-1368DR,5128,6821,14234,0.371,551
2021-10-24T13:21:06,42.805,6.029,CST-1368DR,5128,6821,14234,0.371,551
2021-10-24T13:24:08,42.805,6.029,CST-1368DR,5128,6821,14233,0.371,551
2021-10-24T13:27:10,42.805,6.029,CST-1368DR,5128,6821,14232,0.371,551
2021-10-24T13:30:11,42.805,6.029,CST-1368DR,5128,6821,14232,0.371,550
2021-10-24T13:33:13,42.805,6.029,CST-1368DR,5128,6819,14228,0.372,551
2021-10-24T13:36:14,42.805,6.029,CST-1368DR,5128,6821,14234,0.371,551
2021-10-24T13:39:16,42.805,6.029,CST-1368DR,5128,6821,14234,0.371,551
2021-10-24T13:42:18,42.805,6.029,CST-1368DR,5128,6822,14235,0.370,551
2021-10-24T13:45:19,42.805,6.029,CST-1368DR,5128,6822,14235,0.370,551
2021-10-24T13:48:21,42.805,6.029,CST-1368DR,5128,6820,14231,0.371,550
2021-10-24T13:51:22,42.805,6.029,CST-1368DR,5128,6821,14234,0.371,551
2021-10-24T13:54:24,42.805,6.029,CST-1368DR,5128,6821,14234,0.371,551
2021-10-24T13:57:25,42.805,6.029,CST-1368DR,5128,6820,14231,0.371,551
2021-10-24T14:00:27,42.805,6.029,CST-1368DR,5128,6821,14234,0.371,551
2021-10-24T14:03:29,42.805,6.029,CST-1368DR,5128,6819,14229,0.372,551
2021-10-24T14:06:30,42.805,6.029,CST-1368DR,5128,6821,14233,0.371,551
2021-10-24T14:09:32,42.805,6.029,CST-1368DR,5128,6822,14235,0.370,551
2021-10-24T14:12:33,42.805,6.029,CST-1368DR,5128,6821,14234,0.371,551
2021-10-24T14:15:35,42.805,6.029,CST-1368DR,5128,6822,14236,0.370,551
2021-10-24T14:18:37,42.805,6.029,CST-1368DR,5128,6821,14233,0.371,551
2021-10-24T14:21:38,42.805,6.029,CST-1368DR,5128,6822,14235,0.370,551
2021-10-24T14:24:40,42.805,6.029,CST-1368DR,5128,6821,14234,0.371,551
2021-10-24T14:27:41,42.805,6.029,CST-1368DR,5128,6822,14235,0.370,551
2021-10-24T14:30:43,42.805,6.029,CST-1368DR,5128,6822,14235,0.370,551
2021-10-24T14:33:44,42.805,6.029,CST-1368DR,5128,6822,14235,0.370,551
2021-10-24T14:36:46,42.805,6.029,CST-1368DR,5128,6821,14234,0.371,550
2021-10-24T14:39:48,42.805,6.029,CST-1368DR,5128,6821,14234,0.371,551
2021-10-24T14:42:49,42.805,6.029,CST-1368DR,5128,6821,14234,0.371,551
2021-10-24T14:45:51,42.805,6.029,CST-1368DR,5128,6821,14234,0.371,551
2021-10-24T14:48:52,42.805,6.029,CST-1368DR,5128,6821,14233,0.371,551
2021-10-24T14:51:54,42.805,6.029,CST-1368DR,5128,6822,14235,0.370,551
2021-10-24T14:54:55,42.805,6.029,CST-1368DR,5128,6821,14234,0.371,551
2021-10-24T14:57:57,42.805,6.029,CST-1368DR,5128,6821,14234,0.371,551
2021-10-24T15:00:59,42.805,6.029,CST-1368DR,5128,6821,14234,0.371,551
2021-10-24T15:04:00,42.805,6.029,CST-1368DR,5128,6821,14234,0.371,551
2021-10-24T15:07:02,42.805,6.029,CST-1368DR,5128,6822,14235,0.370,551
2021-10-24T15:10:03,42.805,6.029,CST-1368DR,5128,6822,14235,0.370,551
2021-10-24T15:13:05,42.805,6.029,CST-1368DR,5128,6822,14235,0.370,551
2021-10-24T15:16:07,42.805,6.029,CST-1368DR,5128,6820,14231,0.371,551
2021-10-24T15:19:08,42.805,6.029,CST-1368DR,5128,6821,14234,0.371,551
2021-10-24T15:22:10,42.805,6.029,CST-1368DR,5128,6822,14235,0.370,551
2021-10-24T15:25:11,42.805,6.029,CST-1368DR,5128,6821,14234,0.371,551
2021-10-24T15:28:13,42.805,6.029,CST-1368DR,5128,6821,14234,0.371,551
2021-10-24T15:31:14,42.805,6.029,CST-1368DR,5128,6821,14234,0.371,551
2021-10-24T15:34:16,42.805,6.029,CST-1368DR,5128,6822,14235,0.370,551
2021-10-24T15:37:18,42.805,6.029,CST-1368DR,5128,6822,14235,0.370,551
2021-10-24T15:40:19,42.805,6.029,CST-1368DR,5128,6821,14234,0.371,551
2021-10-24T15:43:21,42.805,6.029,CST-1368DR,5128,6821,14234,0.371,551
2021-10-24T15:46:22,42.805,6.029,CST-1368DR,5128,6821,14234,0.371,551
2021-10-24T15:49:24,42.805,6.029,CST-1368DR,5128,6821,14234,0.371,551
2021-10-24T15:52:26,42.805,6.029,CST-1368DR,5128,6821,14234,0.371,551
2021-10-24T15:55:27,42.805,6.029,CST-1368DR,5128,6821,14232,0.371,551
2021-10-24T15:58:29,42.805,6.029,CST-1368DR,5128,6821,14234,0.371,551
2021-10-24T16:01:30,42.805,6.029,CST-1368DR,5128,6819,14230,0.372,551
2021-10-24T16:04:32,42.805,6.029,CST-1368DR,5128,6821,14232,0.371,551
2021-10-24T16:07:33,42.805,6.029,CST-1368DR,5128,6821,14233,0.371,551
2021-10-24T16:10:35,42.805,6.029,CST-1368DR,5128,6821,14232,0.371,551
2021-10-24T16:13:37,42.805,6.029,CST-1368DR,5128,6821,14233,0.371,551
2021-10-24T16:16:38,42.805,6.029,CST-1368DR,5128,6821,14234,0.371,551
2021-10-24T16:19:40,42.805,6.029,CST-1368DR,5128,6821,14233,0.371,551
2021-10-24T16:22:41,42.805,6.029,CST-1368DR,5128,6818,14227,0.373,551
2021-10-24T16:25:43,42.805,6.029,CST-1368DR,5128,6819,14230,0.372,551
2021-10-24T16:28:45,42.805,6.029,CST-1368DR,5128,6820,14230,0.372,551
2021-10-24T16:31:46,42.805,6.029,CST-1368DR,5128,6820,14230,0.372,551
2021-10-24T16:34:48,42.805,6.029,CST-1368DR,5128,6821,14233,0.371,551
2021-10-24T16:37:49,42.805,6.029,CST-1368DR,5128,6820,14231,0.371,551
2021-10-24T16:40:51,42.805,6.029,CST-1368DR,5128,6820,14231,0.371,551
2021-10-24T16:43:52,42.805,6.029,CST-1368DR,5128,6819,14229,0.372,551
2021-10-24T16:46:54,42.805,6.029,CST-1368DR,5128,6821,14233,0.371,551
2021-10-24T16:49:56,42.805,6.029,CST-1368DR,5128,6819,14230,0.372,551
2021-10-24T16:52:57,42.805,6.029,CST-1368DR,5128,6819,14230,0.372,551